When you browse on this site, cookies collect data to enhance your experience and personalize the content and advertising you see.
Visit our Privacy Policy to learn more. By continuing to use the site, you agree to this use of cookies and data.
  • In France
  • List of Countries
  • For 7 days
  • Water Temperature
  • Satellite Maps
  • Weather Map
  • Weather Widgets
  • user-avatar
    Login

    Hourly Weather Kabul

    Today, 24 January, Thursday

    Time Temperature Precipitation Wind Pressure Humidity
    00:00 -7°C° 0 mm 2 mps 608 mmHg 48%
    01:00 -7°C° 0 mm 2 mps 608 mmHg 48%
    02:00 -7°C° 0 mm 2 mps 609 mmHg 47%
    03:00 -7°C° 0 mm 2 mps 609 mmHg 47%
    04:00 -8°C° 0 mm 2 mps 609 mmHg 46%
    05:00 -7°C° 0 mm 2 mps 608 mmHg 46%
    06:00 -8°C° 0 mm 2 mps 609 mmHg 46%
    07:00 -8°C° 0 mm 2 mps 609 mmHg 46%
    08:00 -8°C° 0 mm 2 mps 609 mmHg 46%
    09:00 -6°C° 0 mm 2 mps 610 mmHg 42%
    10:00 -3°C° 0 mm 1 mps 610 mmHg 38%
    11:00 -1°C° 0 mm 1 mps 610 mmHg 32%
    12:00 -1°C° 0 mm 1 mps 610 mmHg 33%
    13:00 0°C° 0 mm 1 mps 610 mmHg 33%
    14:00 0°C° 0 mm 1 mps 609 mmHg 34%
    15:00 0°C° 0 mm 1 mps 609 mmHg 37%
    16:00 -1°C° 0 mm 1 mps 609 mmHg 41%
    17:00 -2°C° 0 mm 0 mps 609 mmHg 44%
    18:00 -2°C° 0 mm 1 mps 609 mmHg 45%
    19:00 -3°C° 0 mm 1 mps 610 mmHg 46%
    20:00 -6°C° 0 mm 2 mps 610 mmHg 47%
    21:00 -6°C° 0 mm 2 mps 610 mmHg 47%
    22:00 -7°C° 0 mm 2 mps 610 mmHg 46%
    23:00 -7°C° 0 mm 2 mps 610 mmHg 45%

    Tomorrow, 25 January, Friday

    Time Temperature Precipitation Wind Pressure Humidity
    00:00 -7°C° 0 mm 2 mps 609 mmHg 44%
    01:00 -7°C° 0 mm 2 mps 609 mmHg 42%
    02:00 -8°C° 0 mm 2 mps 609 mmHg 41%
    03:00 -8°C° 0 mm 2 mps 609 mmHg 39%
    04:00 -8°C° 0 mm 2 mps 609 mmHg 38%
    05:00 -8°C° 0 mm 2 mps 608 mmHg 37%
    06:00 -8°C° 0 mm 2 mps 608 mmHg 36%
    07:00 -8°C° 0 mm 2 mps 608 mmHg 35%
    08:00 -8°C° 0 mm 2 mps 608 mmHg 34%
    09:00 -7°C° 0 mm 2 mps 609 mmHg 32%
    10:00 -3°C° 0 mm 1 mps 609 mmHg 29%
    11:00 -2°C° 0 mm 1 mps 609 mmHg 26%
    12:00 -1°C° 0 mm 1 mps 608 mmHg 27%
    13:00 0°C° 0 mm 1 mps 608 mmHg 28%
    14:00 0°C° 0 mm 1 mps 607 mmHg 29%
    15:00 0°C° 0 mm 1 mps 607 mmHg 32%
    16:00 -1°C° 0 mm 1 mps 607 mmHg 36%
    17:00 -1°C° 0 mm 1 mps 607 mmHg 39%
    18:00 -2°C° 0 mm 1 mps 608 mmHg 40%
    19:00 -3°C° 0 mm 1 mps 608 mmHg 42%
    20:00 -6°C° 0 mm 2 mps 609 mmHg 43%
    21:00 -6°C° 0 mm 2 mps 609 mmHg 43%
    22:00 -7°C° 0 mm 2 mps 609 mmHg 43%
    23:00 -7°C° 0 mm 2 mps 609 mmHg 42%

    Day after tomorrow, 26 January, Saturday

    Time Temperature Precipitation Wind Pressure Humidity
    00:00 -7°C° 0 mm 2 mps 609 mmHg 42%
    01:00 -7°C° 0 mm 2 mps 609 mmHg 41%
    02:00 -8°C° 0 mm 2 mps 609 mmHg 41%
    03:00 -8°C° 0 mm 2 mps 609 mmHg 40%
    04:00 -8°C° 0 mm 2 mps 609 mmHg 40%
    05:00 -8°C° 0 mm 2 mps 609 mmHg 39%
    06:00 -8°C° 0 mm 2 mps 609 mmHg 38%
    07:00 -8°C° 0 mm 2 mps 609 mmHg 37%
    08:00 -8°C° 0 mm 2 mps 609 mmHg 37%
    09:00 -6°C° 0 mm 1 mps 610 mmHg 33%
    10:00 -4°C° 0 mm 1 mps 610 mmHg 29%
    11:00 -2°C° 0 mm 1 mps 610 mmHg 26%
    12:00 -2°C° 0 mm 1 mps 609 mmHg 26%
    13:00 -1°C° 0 mm 1 mps 609 mmHg 27%
    14:00 0°C° 0 mm 1 mps 609 mmHg 27%
    15:00 -1°C° 0 mm 1 mps 609 mmHg 30%
    16:00 -1°C° 0 mm 1 mps 609 mmHg 34%
    17:00 -1°C° 0 mm 1 mps 609 mmHg 37%
    18:00 -2°C° 0 mm 1 mps 609 mmHg 38%
    19:00 -3°C° 0 mm 1 mps 610 mmHg 40%
    20:00 -3°C° 0 mm 1 mps 610 mmHg 42%
    21:00 -3°C° 0 mm 1 mps 610 mmHg 42%
    22:00 -4°C° 0 mm 1 mps 610 mmHg 42%
    23:00 -4°C° 0 mm 1 mps 610 mmHg 43%

    27 January, Sunday

    Time Temperature Precipitation Wind Pressure Humidity
    00:00 -4°C° 0 mm 1 mps 610 mmHg 43%
    01:00 -4°C° 0 mm 1 mps 610 mmHg 43%
    02:00 -4°C° 0 mm 1 mps 610 mmHg 43%
    03:00 -6°C° 0 mm 1 mps 610 mmHg 43%
    04:00 -6°C° 0 mm 1 mps 609 mmHg 44%
    05:00 -6°C° 0 mm 1 mps 609 mmHg 44%
    06:00 -6°C° 0 mm 1 mps 610 mmHg 45%
    07:00 -6°C° 0 mm 1 mps 610 mmHg 45%
    08:00 -7°C° 0 mm 2 mps 610 mmHg 45%
    09:00 -3°C° 0 mm 1 mps 610 mmHg 43%
    10:00 -2°C° 0 mm 1 mps 611 mmHg 40%
    11:00 0°C° 0 mm 1 mps 611 mmHg 37%
    12:00 0°C° 0 mm 1 mps 610 mmHg 37%
    13:00 +1°C° 0 mm 1 mps 610 mmHg 37%
    14:00 +2°C° 0 mm 1 mps 610 mmHg 37%
    15:00 +1°C° 0 mm 1 mps 609 mmHg 41%
    16:00 +1°C° 0 mm 1 mps 609 mmHg 45%
    17:00 0°C° 0 mm 0 mps 609 mmHg 49%
    18:00 0°C° 0 mm 1 mps 610 mmHg 50%
    19:00 -1°C° 0 mm 1 mps 610 mmHg 52%
    20:00 -4°C° 0 mm 2 mps 611 mmHg 53%
    21:00 -4°C° 0 mm 2 mps 611 mmHg 53%
    22:00 -4°C° 0 mm 2 mps 611 mmHg 53%
    23:00 -5°C° 0 mm 2 mps 611 mmHg 53%

    28 January, Monday

    Time Temperature Precipitation Wind Pressure Humidity
    00:00 -5°C° 0 mm 2 mps 611 mmHg 52%
    01:00 -5°C° 0 mm 2 mps 611 mmHg 52%
    02:00 -5°C° 0 mm 2 mps 610 mmHg 51%
    03:00 -5°C° 0 mm 2 mps 610 mmHg 50%
    04:00 -6°C° 0 mm 3 mps 610 mmHg 49%
    05:00 -6°C° 0 mm 3 mps 610 mmHg 48%
    06:00 -6°C° 0 mm 3 mps 610 mmHg 46%
    07:00 -6°C° 0 mm 3 mps 610 mmHg 44%
    08:00 -6°C° 0 mm 3 mps 610 mmHg 42%
    09:00 -4°C° 0 mm 3 mps 611 mmHg 39%
    10:00 -1°C° 0 mm 2 mps 611 mmHg 36%
    11:00 +2°C° 0 mm 2 mps 611 mmHg 34%
    12:00 +3°C° 0 mm 2 mps 610 mmHg 33%
    13:00 +4°C° 0 mm 2 mps 610 mmHg 32%
    14:00 +5°C° 0 mm 2 mps 610 mmHg 31%
    15:00 +4°C° 0 mm 2 mps 609 mmHg 35%
    16:00 +3°C° 0 mm 2 mps 609 mmHg 39%
    17:00 +4°C° 0 mm 1 mps 608 mmHg 43%
    18:00 +2°C° 0 mm 2 mps 609 mmHg 43%
    19:00 +1°C° 0 mm 2 mps 609 mmHg 44%
    20:00 -1°C° 0 mm 2 mps 609 mmHg 44%
    21:00 -1°C° 0 mm 2 mps 609 mmHg 42%
    22:00 -1°C° 0 mm 2 mps 609 mmHg 40%
    23:00 -1°C° 0 mm 2 mps 609 mmHg 39%

    29 January, Tuesday

    Time Temperature Precipitation Wind Pressure Humidity
    00:00 -1°C° 0 mm 2 mps 608 mmHg 38%
    01:00 -1°C° 0 mm 2 mps 608 mmHg 38%
    02:00 -1°C° 0 mm 2 mps 608 mmHg 37%
    03:00 -1°C° 0 mm 2 mps 607 mmHg 38%
    04:00 -1°C° 0 mm 2 mps 607 mmHg 39%
    05:00 -1°C° 0 mm 2 mps 607 mmHg 40%
    06:00 -1°C° 0 mm 2 mps 607 mmHg 41%
    07:00 -1°C° 0 mm 2 mps 607 mmHg 41%
    08:00 +1°C° 0 mm 2 mps 607 mmHg 42%
    09:00 +2°C° 0 mm 2 mps 608 mmHg 42%
    10:00 +4°C° 0 mm 2 mps 608 mmHg 43%
    11:00 +6°C° 0 mm 1 mps 609 mmHg 43%
    12:00 +7°C° 0 mm 1 mps 608 mmHg 44%
    13:00 +8°C° 0 mm 1 mps 608 mmHg 44%
    14:00 +8°C° 0 mm 1 mps 607 mmHg 45%
    15:00 +7°C° 0 mm 1 mps 607 mmHg 48%
    16:00 +7°C° 0 mm 1 mps 607 mmHg 51%
    17:00 +6°C° 0 mm 1 mps 606 mmHg 54%
    18:00 +5°C° 0 mm 1 mps 606 mmHg 57%
    19:00 +4°C° 0 mm 1 mps 606 mmHg 59%
    20:00 +4°C° 0 mm 1 mps 606 mmHg 61%
    21:00 +3°C° 0.1 mm 1 mps 607 mmHg 62%
    22:00 +3°C° 0.1 mm 1 mps 607 mmHg 63%
    23:00 +3°C° 0.1 mm 1 mps 607 mmHg 64%
    Show more